Weather History for Herat, Afghanistan

Change the Weather History Date:

Saturday, February 16, 2013

  Actual Average Record
Temperature  
Mean Temperature 44 °F -  
Max Temperature 55 °F 59 °F - ()
Min Temperature 32 °F 35 °F - ()
Degree Days  
Heating Degree Days 22    
Moisture  
Dew Point 30 °F    
Average Humidity 61    
Maximum Humidity 80    
Minimum Humidity 38    
Precipitation  
Precipitation 0.00 in 0.07 in - ()
Sea Level Pressure  
Sea Level Pressure 30.04 in    
Wind  
Wind Speed 2 mph ()    
Max Wind Speed 6 mph    
Max Gust Speed -    
T = Trace of Precipitation, MM = Missing Value Source: Averaged Metar Reports

Daily Weather History Graph

Daily Weather History Graph

Search for Another Location

Airport:

Trip Planner

Search our weather history database for the weather conditions in past years. The results will help you decide how hot, cold, wet, or windy it might be!

Date:

Astronomy

Feb. 16, 2013 Rise Set
Actual Time 7:05 AM AFT 6:05 PM AFT
Civil Twilight 6:39 AM AFT 6:31 PM AFT
Nautical Twilight 6:10 AM AFT 7:00 PM AFT
Astronomical Twilight 5:41 AM AFT 7:29 PM AFT
Moon 10:20 AM AFT (2/16) 12:19 AM AFT
Length of Visible Light 11h 51m
Length of Day
11h 00m
Waxing Crescent, 35% of the Moon is Illuminated
Feb 16
Waxing Crescent
Feb 18
First Quarter
Feb 26
Full
Mar 5
Last Quarter
Mar 12
New

Hourly Weather History & Observations

Time (AFT) Temp. Windchill Dew Point Humidity Pressure Visibility Wind Dir Wind Speed Gust Speed Precip Events Conditions
12:25 AM 37.4 °F - 24.8 °F 60% 30.12 in - WSW 2.3 mph - N/A   Clear
1:25 AM 35.6 °F - 24.8 °F 65% 30.12 in - NW 1.2 mph - N/A   Clear
2:25 AM 33.8 °F - 26.6 °F 75% 30.12 in - Calm Calm - N/A   Clear
3:25 AM 33.8 °F - 26.6 °F 75% 30.12 in - South 2.3 mph - N/A   Clear
4:25 AM 32.0 °F - 26.6 °F 80% 30.09 in - Calm Calm - N/A   Clear
5:25 AM 32.0 °F - 26.6 °F 80% 30.09 in - South 2.3 mph - N/A   Clear
6:25 AM 32.0 °F 28.7 °F 26.6 °F 80% 30.09 in - South 3.5 mph - N/A   Clear
7:25 AM 32.0 °F - 26.6 °F 80% 30.09 in - SSW 2.3 mph - N/A   Clear
8:24 AM 33.8 °F 29.6 °F 26.6 °F 75% 30.09 in - South 4.6 mph - N/A   Clear
9:24 AM 39.2 °F 37.0 °F 26.6 °F 61% 30.09 in - Variable 3.5 mph - N/A   Clear
10:25 AM 42.8 °F - 28.4 °F 57% 30.09 in - Variable 1.2 mph - N/A   Clear
11:25 AM 48.2 °F - 28.4 °F 46% 30.06 in - Variable 1.2 mph - N/A   Clear
12:25 PM 48.2 °F - 30.2 °F 50% 30.06 in - SW 5.8 mph - N/A   Clear
1:25 PM 51.8 °F - 33.8 °F 50% 30.04 in - Variable 3.5 mph - N/A   Clear
2:25 PM 53.6 °F - 30.2 °F 41% 30.01 in - West 5.8 mph - N/A   Clear
3:25 PM 55.4 °F - 30.2 °F 38% 29.98 in - Variable 3.5 mph - N/A   Clear
4:25 PM 55.4 °F - 32.0 °F 41% 29.95 in - North 3.5 mph - N/A   Clear
5:25 PM 55.4 °F - 32.0 °F 41% 29.95 in - North 2.3 mph - N/A   Clear
6:25 PM 50.0 °F - 35.6 °F 58% 29.95 in - East 3.5 mph - N/A   Clear
7:25 PM 46.4 °F 45.2 °F 37.4 °F 71% 29.95 in - SE 3.5 mph - N/A   Clear
8:25 PM 48.2 °F - 35.6 °F 62% 29.95 in - South 2.3 mph - N/A   Clear
9:25 PM 48.2 °F - 32.0 °F 54% 29.95 in - SW 3.5 mph - N/A   Clear
10:25 PM 44.6 °F - 32.0 °F 61% 29.95 in - Calm Calm - N/A   Clear
11:24 PM 41.0 °F - 32.0 °F 70% 29.95 in - SE 2.3 mph - N/A   Clear